ONEWEB-0684, 56720

Orbit data source: Space-Track

ONEWEB-0684, 56720 is a payload satellite owned by One Web (NAA) (UK) in LEO that was launched on Sat, 20 May 2023 UTC via an FALCON 9 launch vehicle from the Air Force Western Test Range (AFWTR). Payloads include a variety of satellites, spacecraft, and rockets equipped with specific instruments for various scientific and technological missions. These include communications satellites like Starlink; space stations such as the ISS; scientific satellites like the Hubble; Earth observation satellites from companies like Planet Labs, Umbra, and HawkEye 360; GPS; miniature CubeSats for education and research; and military/defense satellites.

Loading next visibility...
ONEWEB-0684 details
Identifier
56720, 2023-068L
Orbit
LEO
Last TLE update17 hours ago
Origin
Flag of UKOne Web (NAA) (UK)
ManufacturerOne Web
MissionOperational Commercial Communications
Bus & MotorARROW, Unknown motor
Mass148 kg wet, ~140 kg dry
Launch date (UTC)
2023-05-20 (2 years ago)
Launch vehicle
FALCON 9
Launch site
Air Force Western Test Range (AFWTR)
Object type
Payload
Rocket body
Debris
Shape & HBRTrap Box + 2 Pan, 5 m
Radar Cross Section2.032 m², Large (>1 m²)

Expand to show TLE details & history

TLE from 17 hours ago
0 ONEWEB-0684
1 56720U 23068L   25014.96080450  .00000123  00000-0  29137-3 0  9994
2 56720  87.9053   2.4170 0001975 133.4984 226.6311 13.15547160 81814
Epoch: 2025-01-14T23:03Z
Definitive object data (Epoch: 2025-01-14T23:03:33.508Z)
Latitude-0.00001°
Longitude-98.13262°
Altitude1,205.7 km
Speed7.251 km/s
True Right ascension00h 09m 40s
True Declination0° 00' 00"
Sunlit
Object was in daylight at TLE epoch
Visualization TLE readout
Latitude51.71631°
Longitude-95.62823°
Altitude1,209.91 km
Speed7.254 km/s
Apparent Right ascension02h 25m 27s
Apparent Declination12° 42' 39"
Sunlit
Object is in daylight
Visualization observer readout
Local Sidereal Time16:25:51
Azimuth34.557° NE
Elevation-30.405°
Doppler factor1
Orbital elements
Apogee altitude1,200.385 km
Perigee altitude1,197.392 km
Semi-major axis7,577.025 km
Eccentricity0.0001975
Inclination87.9053°
RAAN2.417°
Arg. of periapsis133.4984°
True anomaly226.61465°
Mean anomaly226.6311°
Eccentric anomaly226.62288°
Mean motion3.29075 °/min
BSTAR0.00029137
Orbital period109.4 mins
Loading maneuver chart data...
Loading historical data...
Loading historical data...
Loading historical data...
Loading historical data...
Loading historical data...
Loading historical data...
Loading historical data...

ONEWEB-0684 Visibility forecast

Observer location: undefined°, undefined

Span
Click to sort rows by Start time (UTC) header in descending order
Start Az.
Max El. time (UTC)
Max El. Az.
Max El.
End time (UTC)
End Az.
13 mins2025-01-15 22:52:57.002Z157.112° SSE2025-01-15 22:59:57.002Z73.696° E38.461°2025-01-15 23:05:57.002Z11.645° NNE
10 mins2025-01-16 00:44:57.002Z234.93° WSW2025-01-16 00:48:57.002Z275.479° WNW24.34°2025-01-16 00:54:57.002Z335.248° NNW
11 mins2025-01-16 10:21:57.002Z21.773° NNE2025-01-16 10:26:57.002Z83.875° E33.114°2025-01-16 10:32:57.002Z148.328° SSE
11 mins2025-01-16 12:10:57.002Z337.441° NNW2025-01-16 12:15:57.002Z285.259° WNW29.922°2025-01-16 12:21:57.002Z220.892° SW
|